FENGYUN 1C DEB

Satellite information

Favourite Embed

Satellite Type and Status

DEBRISIN ORBIT

Key statistics

Satellite FENGYUN 1C DEB at a glance.

Uptime

9673

Days in orbit

Revolutions

≈ 14.4

Per day

Orbit

SSO

Sun Synchronous Orbit

Inclination

98.9

Latest

Satellite identification and parameters

Extended collection of information and parameters for FENGYUN 1C DEB.

Object identification

Identified? True

Debris? True

Object name: FENGYUN 1C DEB

International designator: 1999-025ANG

Object number (NORAD): 30625

Object ID (CCSDS): 30625

Country: PEOPLES REPUBLIC OF CHINA (PRC)

Current information (Y/N): Y

RCS size: SMALL

Orbital parameters

Period: 100.017 minutes

Inclination: 98.9258 deg

SMA: 7137.464 km

Apoapsis: 797.999 km

Periapsis: 720.66 km

RAAN: 259.7741 deg

Eccentricy: 0.00541779

Argument of periapsis: 59.8809 deg

Mean anomaly: 300.7733 deg

Mean motion: 14.39749117 rev/day

Mean motion (dot): 0.00013754 rev/day2

B* drag term: 0.0043207629 1/REarth

Two-line elements (TLE)

Creation date: Nov. 1, 2025, 7:40 p.m.

Reference frame: TEME

Reference center: EARTH

Epoch: Nov. 1, 2025, 2:13 p.m. UTC

TLE line 0: 0 FENGYUN 1C DEB

TLE line 1: 1 30625U 99025ANG 25305.59281079 .00013754 00000-0 43208-2 0 9996

TLE line 2: 2 30625 98.9258 259.7741 0054178 59.8809 300.7733 14.39749117961003

Live tracking on map

Real-time ground track for satellite FENGYUN 1C DEB.

In-orbit conjunctions

A list of the most updated potential collisions computed for object FENGYUN 1C DEB.

Target Orbit TCA Probability of collision Miss distance Type
SL-14 R/B LEO 2025-10-23 22:53:48 0.0001325136 446.0 (m) ROCKET BODY
FENGYUN 1C DEB SSO 2025-05-29 13:54:52 0.000114575 163.0 (m) DEBRIS
FENGYUN 1C DEB SSO 2024-09-26 18:51:47 0.0001291432 550.0 (m) DEBRIS
COROT SSO 2024-08-05 10:48:26 0.0002100756 32.0 (m) PAYLOAD

Associated space launch

Chinese polar orbiting meteorological satellite

FENGYUN 1C DEB was lifted into orbit during the mission ‘Long March 4B | Feng Yun 1C’, on board a Long March 4B space rocket.

The launch took place on May 10, 1999, 1:33 a.m. from Launch Complex 7.

For more information about the launch, click the button.

Launch to space Long March 4B | Feng Yun 1C
Long March 4B | Feng Yun 1C

Agency: N/A

Status: Launch Successful

Launch date: May 10, 1999, 1:33 a.m. UTC

Rocket: Long March 4B

Launch pad: Launch Complex 7

Location: Taiyuan Satellite Launch Center, People's Republic of China

...

Latest news about this satellite

There are no fresh news available about this satellite. Check back as we update our databases every day.


Newsletter sign-up

Weekly statistics, charts and insights to help you stay on top of the space industry.